"2010-11-25 00:00:00",366061,6.397,235.9,11.37,1.756,-0.235,97.46081,-7.166,-5.909,38.93,0,109.1,13.75,-6.44,197.9
"2010-11-25 00:00:30",366062,8.81,260.7,20.15,1.692,0.609,97.44236,-7.213,-5.973,32.41,0,109.1,13.75,-6.49,222.7
"2010-11-25 00:01:00",366063,10.29,273.7,16.64,2.819,0.678,97.46676,-7.151,-5.958,30.08,0,109.1,13.75,-6.42,235.7
"2010-11-25 00:01:30",366064,12.11,264.9,9.7,2.585,0.743,97.48717,-7.099,-5.929,30.63,0,109.1,13.75,-6.37,226.9
"2010-11-25 00:02:00",366065,11.32,266.9,9.68,2.146,1.056,97.50645,-7.05,-5.887,31.85,0,109.1,13.75,-6.32,228.9
"2010-11-25 00:02:30",366066,13.93,266.4,5.889,1.037,1.218,97.50954,-7.042,-5.861,33.06,0,109.1,13.75,-6.32,228.4
"2010-11-25 00:03:00",366067,11.6,277.4,8.65,1.613,0.937,97.51408,-7.031,-5.864,34.31,0,109.1,13.75,-6.30,239.4
"2010-11-25 00:03:30",366068,7.909,258.4,9.29,1.205,0.709,97.50867,-7.045,-5.862,35.86,0,109.1,13.75,-6.32,220.4
"2010-11-25 00:04:00",366069,8.19,244.1,16.47,1.381,0.543,97.48569,-7.103,-5.893,36.16,0,109.1,13.75,-6.38,206.1
"2010-11-25 00:09:30",366080,16.08,288,3.661,1.269,1.524,97.51447,-7.03,-5.902,29.14,0,109.1,13.76,-6.30,250.0
"2010-11-25 00:10:00",366081,14.23,289.6,6.625,0.827,1.736,97.51447,-7.03,-5.894,27.25,0,109.1,13.76,-6.30,251.6
"2010-11-25 00:10:30",366082,15.43,314.1,6.493,2.372,1.654,97.51531,-7.028,-5.898,25.47,0,109.1,13.76,-6.30,276.1
"2010-11-25 00:11:00",366083,14.98,301.2,7.825,2.188,1.898,97.53347,-6.982,-5.877,22.5,0,109.1,13.76,-6.25,263.2
"2010-11-25 00:11:30",366084,13.66,302.3,4.584,0.797,1.743,97.55532,-6.926,-5.84,22.52,0,109.1,13.76,-6.20,264.3
"2010-11-25 00:12:00",366085,13.87,304.6,9.75,1.426,1.718,97.57859,-6.867,-5.785,23.85,0,109.1,13.76,-6.14,266.6
"2010-11-25 00:12:30",366086,12.21,288.2,5.307,0.934,1.509,97.58256,-6.857,-5.769,25.71,0,109.1,13.76,-6.13,250.2
"2010-11-25 00:13:00",366087,13.7,288.5,4.471,0.908,1.977,97.58256,-6.857,-5.738,24.81,0,109.1,13.76,-6.13,250.5
"2010-11-25 00:13:30",366088,13.46,290.2,3.956,0.967,1.976,97.58426,-6.852,-5.723,22.7,0,109.1,13.76,-6.12,252.2
"2010-11-25 00:14:00",366089,13.98,298,5.827,0.926,1.691,97.60129,-6.809,-5.688,23.14,0,109.1,13.76,-6.08,260.0
"2010-11-25 00:14:30",366090,11.17,295.4,6.595,1.701,0.765,97.59618,-6.822,-5.675,26.09,0,109.1,13.75,-6.09,257.4
"2010-11-25 00:15:00",366091,14.43,303.1,11.65,2.342,1.62,97.56725,-6.896,-5.716,26.35,0,109.1,13.75,-6.17,265.1
"2010-11-25 00:15:30",366092,17.06,314.8,9.81,3.669,1.526,97.57263,-6.882,-5.731,22.83,0,109.1,13.75,-6.15,276.8
"2010-11-25 00:16:00",366093,11.72,297.5,6.485,1.279,1.567,97.58256,-6.857,-5.718,23.38,0,109.1,13.75,-6.13,259.5
"2010-11-25 00:16:30",366094,8.68,315.1,10.56,0.886,1.655,97.59278,-6.831,-5.669,23.28,0,109.1,13.75,-6.10,277.1
"2010-11-25 00:17:00",366095,11.61,293.7,6.435,1.374,1.712,97.58626,-6.847,-5.657,24.96,0,109.1,13.75,-6.12,255.7
"2010-11-25 00:17:30",366096,13.73,293.1,5.826,1.339,1.379,97.58256,-6.857,-5.679,25.89,0,109.1,13.75,-6.13,255.1
"2010-11-25 00:18:00",366097,12.14,291.6,4.741,1.01,1.505,97.58256,-6.857,-5.673,26.61,0,109.1,13.75,-6.13,253.6
"2010-11-25 00:18:30",366098,10.39,297.2,5.295,1.002,1.054,97.57291,-6.881,-5.68,27.38,0,109.1,13.75,-6.15,259.2
"2010-11-25 00:19:00",366099,11.64,289.8,5.011,1.342,1.083,97.55164,-6.935,-5.716,27.84,0,109.1,13.75,-6.21,251.8
"2010-11-25 00:24:30",366110,12.2,295.4,5.632,0.836,1.332,97.55276,-6.933,-5.717,25.96,0,109.1,13.76,-6.20,257.4
"2010-11-25 00:25:00",366111,11.75,299.7,5.555,1.128,0.974,97.54738,-6.946,-5.717,27.64,0,109.1,13.76,-6.22,261.7
"2010-11-25 00:25:30",366112,12.48,298.8,4.562,0.73,1.119,97.52326,-7.008,-5.744,28.62,0,109.1,13.76,-6.28,260.8
"2010-11-25 00:26:00",366113,13.08,299.5,2.252,0.701,1.175,97.51447,-7.03,-5.757,27.87,0,109.1,13.76,-6.30,261.5
"2010-11-25 00:26:30",366114,13.73,299.1,4.197,0.714,1.01,97.51447,-7.03,-5.786,27.48,0,109.1,13.76,-6.30,261.1
"2010-11-25 00:27:00",366115,15.23,306.4,6.724,1.018,1.289,97.51447,-7.03,-5.785,25.56,0,109.1,13.76,-6.30,268.4
"2010-11-25 00:27:30",366116,14.03,293,5.126,0.993,1.574,97.51502,-7.029,-5.783,23.37,0,109.1,13.76,-6.30,255.0
"2010-11-25 00:28:00",366117,13.58,305.6,5.125,0.822,1.469,97.51531,-7.028,-5.791,22.89,0,109.1,13.76,-6.30,267.6
"2010-11-25 00:28:30",366118,12.46,315.9,8.71,0.921,1.103,97.51926,-7.018,-5.783,23.05,0,109.1,13.76,-6.29,277.9
"2010-11-25 00:29:00",366119,11.71,309,8.9,1.197,1.271,97.51699,-7.024,-5.775,23.83,0,109.1,13.76,-6.30,271.0
"2010-11-25 00:29:30",366120,11.63,306.8,4.108,0.71,1.297,97.51952,-7.017,-5.779,23.37,0,109.1,13.76,-6.29,268.8
"2010-11-25 00:30:00",366121,12.42,303.5,5.59,1.001,1.243,97.51756,-7.022,-5.807,23.67,0,109.1,13.77,-6.29,265.5
"2010-11-25 00:30:30",366122,12.73,304.2,4.52,0.869,1.048,97.51862,-7.019,-5.798,24.18,0,109.1,13.76,-6.29,266.2
"2010-11-25 00:31:00",366123,11.73,313.2,4.948,0.729,0.851,97.51668,-7.024,-5.792,25.07,0,109.1,13.76,-6.30,275.2
"2010-11-25 00:31:30",366124,11.42,312.2,4.329,1.416,1.133,97.51262,-7.035,-5.836,24.36,0,109.1,13.76,-6.31,274.2
"2010-11-25 00:32:00",366125,10.36,312,5.175,0.764,1.072,97.50782,-7.047,-5.819,24.39,0,109.1,13.76,-6.32,274.0
"2010-11-25 00:32:30",366126,11.51,313.3,4.669,0.782,0.878,97.49809,-7.072,-5.84,24.5,0,109.1,13.76,-6.34,275.3
"2010-11-25 00:33:00",366127,10.4,306.5,6.165,1.052,0.807,97.49524,-7.079,-5.855,24.53,0,109.1,13.76,-6.35,268.5
"2010-11-25 00:33:30",366128,10.32,307.9,4.772,0.97,0.568,97.48561,-7.103,-5.872,25.9,0,109.1,13.76,-6.38,269.9
"2010-11-25 00:34:00",366129,11.84,311,4.429,0.796,0.616,97.46233,-7.163,-5.928,26.56,0,109.1,13.76,-6.44,273.0
"2010-11-25 00:39:30",366140,13.08,310.9,3.323,0.721,1.015,97.39239,-7.341,-6.155,24.89,0,109.1,13.77,-6.61,272.9
"2010-11-25 00:40:00",366141,13.67,309,3.091,1.104,1.214,97.40146,-7.317,-6.133,24.3,0,109.1,13.77,-6.59,271.0
"2010-11-25 00:40:30",366142,14.39,311.2,3.289,1.052,1.046,97.40205,-7.316,-6.152,23.9,0,109.1,13.77,-6.59,273.2
"2010-11-25 00:41:00",366143,14.83,311.3,4.926,1.204,1.17,97.40287,-7.314,-6.137,24.05,0,109.1,13.77,-6.59,273.3
"2010-11-25 00:41:30",366144,14.51,307.6,5.166,1.158,1.25,97.40287,-7.314,-6.164,24.1,0,109.1,13.77,-6.59,269.6
"2010-11-25 00:42:00",366145,12.92,305,3.593,0.564,1.458,97.40287,-7.314,-6.122,24.32,0,109.1,13.77,-6.59,267.0
"2010-11-25 00:42:30",366146,11.98,308.7,4.26,0.632,1.275,97.40315,-7.313,-6.136,24.23,0,109.1,13.77,-6.59,270.7
"2010-11-25 00:43:00",366147,12.96,315.5,3.567,0.904,1.096,97.40316,-7.313,-6.132,24.09,0,109.1,13.77,-6.59,277.5
"2010-11-25 00:43:30",366148,12.18,313.1,4.78,0.958,0.978,97.40343,-7.312,-6.135,24.35,0,109.1,13.77,-6.59,275.1
"2010-11-25 00:44:00",366149,12.29,306,6.616,0.959,1.233,97.40372,-7.312,-6.125,24.43,0,109.1,13.77,-6.59,268.0
"2010-11-25 00:44:30",366150,10.43,311.5,5.244,1.071,0.98,97.40401,-7.311,-6.136,24.26,0,109.1,13.77,-6.58,273.5
"2010-11-25 00:45:00",366151,11.08,311.6,5.345,0.595,0.956,97.40769,-7.302,-6.121,24.4,0,109.1,13.77,-6.58,273.6
"2010-11-25 00:45:30",366152,10.85,320.3,5.829,0.74,0.892,97.40514,-7.308,-6.125,24.67,0,109.1,13.77,-6.58,282.3
"2010-11-25 00:46:00",366153,10.23,304.1,6.556,0.706,0.929,97.40315,-7.313,-6.132,24.64,0,109.1,13.77,-6.59,266.1
"2010-11-25 00:46:30",366154,12.31,307.6,5.087,1.856,0.8,97.40315,-7.313,-6.117,25.01,0,109.1,13.77,-6.59,269.6
"2010-11-25 00:47:00",366155,14.38,310.2,4.444,0.788,0.726,97.40315,-7.313,-6.148,24.33,0,109.1,13.77,-6.59,272.2
"2010-11-25 00:47:30",366156,13.77,313,4.713,1.026,0.803,97.4037,-7.312,-6.16,23.49,0,109.1,13.77,-6.59,275.0
"2010-11-25 00:48:00",366157,13.26,318.3,4.878,1.014,1.106,97.4023,-7.315,-6.161,23.4,0,109.1,13.77,-6.59,280.3
"2010-11-25 00:48:30",366158,13.58,314.8,4.587,0.802,1.033,97.40058,-7.32,-6.163,23.15,0,109.2,13.76,-6.59,276.8
"2010-11-25 00:49:00",366159,14.97,315.5,6.15,0.949,1.111,97.38809,-7.351,-6.152,23.2,0,109.1,13.77,-6.63,277.5
"2010-11-25 00:56:30",366174,16.68,313.8,3.785,0.632,1.664,97.3738,-7.388,-6.217,21.12,0,109.1,13.78,-6.66,275.8
"2010-11-25 00:57:00",366175,16.3,316.4,4.204,0.708,1.776,97.3755,-7.384,-6.198,21.13,0,109.1,13.78,-6.66,278.4
"2010-11-25 00:57:30",366176,16.84,315.4,3.622,0.513,1.557,97.37976,-7.373,-6.201,21.09,0,109.1,13.78,-6.65,277.4
"2010-11-25 00:58:00",366177,15.76,316.4,4.292,0.853,1.508,97.37973,-7.373,-6.208,21.06,0,109.1,13.78,-6.65,278.4
"2010-11-25 00:58:30",366178,16.11,312.9,6.533,0.948,1.804,97.37546,-7.384,-6.184,21.04,0,109.1,13.78,-6.66,274.9
"2010-11-25 00:59:00",366179,15.19,310.9,4.58,0.71,2.012,97.38168,-7.368,-6.186,20.82,0,109.1,13.78,-6.64,272.9
"2010-11-25 00:59:30",366180,15.53,314.8,4.369,0.433,1.792,97.39019,-7.346,-6.185,20.69,0,109.1,13.78,-6.62,276.8
"2010-11-25 01:00:00",366181,16.29,318.5,3.306,0.568,1.54,97.39217,-7.341,-6.168,20.64,0,109.1,13.78,-6.61,280.5
"2010-11-25 01:00:30",366182,16.59,318.1,3.799,0.505,1.45,97.39274,-7.34,-6.173,20.65,0,109.1,13.78,-6.61,280.1
"2010-11-25 01:01:00",366183,15.8,314.9,3.363,0.711,1.667,97.39217,-7.341,-6.166,20.56,0,109.1,13.78,-6.61,276.9
"2010-11-25 01:01:30",366184,15.29,314.7,3.958,0.551,1.642,97.39754,-7.327,-6.166,20.59,0,109.1,13.78,-6.60,276.7
"2010-11-25 01:02:00",366185,15.31,314.6,3.232,0.506,1.801,97.40662,-7.304,-6.152,20.73,0,109.1,13.78,-6.58,276.6
"2010-11-25 01:02:30",366186,15.04,315.5,4.008,0.514,1.642,97.41032,-7.295,-6.148,20.75,0,109.1,13.78,-6.57,277.5
"2010-11-25 01:03:00",366187,15.14,316.4,3.909,0.688,1.652,97.41145,-7.292,-6.143,20.85,0,109.1,13.78,-6.57,278.4
"2010-11-25 01:03:30",366188,15.15,319.8,5.326,0.788,1.542,97.41033,-7.295,-6.137,20.71,0,109.1,13.78,-6.57,281.8
"2010-11-25 01:04:00",366189,15.71,319.2,3.154,0.718,1.687,97.41033,-7.295,-6.138,20.6,0,109.1,13.78,-6.57,281.2
"2010-11-25 01:09:30",366200,16.98,317,5.059,0.582,1.755,97.39243,-7.34,-6.138,20.42,0,109.1,13.78,-6.61,279.0
"2010-11-25 01:10:00",366201,16.22,315.6,3.704,0.565,1.915,97.39299,-7.339,-6.153,20.31,0,109.1,13.78,-6.61,277.6
"2010-11-25 01:10:30",366202,15.82,315.2,3.891,0.581,1.726,97.39413,-7.336,-6.145,20.27,0,109.1,13.78,-6.61,277.2
"2010-11-25 01:11:00",366203,16.09,314.5,4.485,0.487,1.656,97.39413,-7.336,-6.13,20.31,0,109.1,13.78,-6.61,276.5
"2010-11-25 01:11:30",366204,16.54,313.1,3.953,0.643,1.664,97.39243,-7.34,-6.159,20.25,0,109.1,13.78,-6.61,275.1
"2010-11-25 01:12:00",366205,16.59,318.1,4.241,0.743,1.58,97.38675,-7.355,-6.163,20.31,0,109.1,13.78,-6.63,280.1
"2010-11-25 01:12:30",366206,17.61,320.7,3.821,0.827,1.452,97.38334,-7.364,-6.166,20.58,0,109.1,13.78,-6.64,282.7
"2010-11-25 01:13:00",366207,17.76,315.5,4.382,0.784,1.572,97.37852,-7.376,-6.162,20.71,0,109.1,13.78,-6.65,277.5
"2010-11-25 01:13:30",366208,16.3,317.1,3.815,0.55,1.52,97.37369,-7.388,-6.184,20.77,0,109.1,13.78,-6.66,279.1
"2010-11-25 01:14:00",366209,15.89,314.2,3.3,0.665,1.659,97.3612,-7.42,-6.202,20.74,0,109.1,13.78,-6.69,276.2
"2010-11-25 01:14:30",366210,15.8,315.3,5.679,0.672,1.537,97.3541,-7.438,-6.208,20.74,0,109.1,13.78,-6.71,277.3
"2010-11-25 01:15:00",366211,16.8,311.6,4.91,0.732,1.789,97.34985,-7.449,-6.196,20.65,0,109.1,13.78,-6.72,273.6
"2010-11-25 01:15:30",366212,16.41,312.6,4.676,0.742,1.677,97.34446,-7.462,-6.214,20.62,0,109.1,13.78,-6.74,274.6
"2010-11-25 01:16:00",366213,16.33,312.8,4.101,0.674,1.866,97.34332,-7.465,-6.218,20.3,0,109.1,13.78,-6.74,274.8
"2010-11-25 01:16:30",366214,16.66,313.2,4.056,0.713,1.744,97.34446,-7.462,-6.242,19.87,0,109.2,13.79,-6.74,275.2
"2010-11-25 01:17:00",366215,17.25,319,4.452,1.263,1.618,97.34616,-7.458,-6.219,19.84,0,109.1,13.78,-6.73,281.0
"2010-11-25 01:17:30",366216,15.48,312,4.773,0.902,1.853,97.34985,-7.449,-6.234,19.59,0,109.1,13.79,-6.72,274.0
"2010-11-25 01:18:00",366217,14.36,321,3.662,1.267,1.612,97.35694,-7.431,-6.218,19.6,0,109.1,13.78,-6.70,283.0
"2010-11-25 01:18:30",366218,15.09,319.8,4.228,0.585,1.314,97.3507,-7.447,-6.248,20.13,0,109.1,13.79,-6.72,281.8
"2010-11-25 01:19:00",366219,16.49,315.7,5.636,0.562,1.503,97.34616,-7.458,-6.236,20.33,0,109.1,13.79,-6.73,277.7
"2010-11-25 01:24:30",366230,16.52,314.3,5.374,1.315,1.598,97.30926,-7.552,-6.327,20.31,0,109.1,13.78,-6.83,276.3
"2010-11-25 01:25:00",366231,15.66,316,5.561,0.612,1.391,97.2999,-7.576,-6.334,20.39,0,109.1,13.78,-6.85,278.0
"2010-11-25 01:25:30",366232,15.99,315.9,4.754,0.647,1.423,97.284,-7.616,-6.355,20.62,0,109.1,13.78,-6.89,277.9
"2010-11-25 01:26:00",366233,17.45,313.8,4.138,0.781,1.628,97.27946,-7.628,-6.366,20.59,0,109.1,13.78,-6.90,275.8
"2010-11-25 01:26:30",366234,16.06,315,4.173,0.608,1.397,97.27577,-7.637,-6.375,20.5,0,109.1,13.79,-6.91,277.0
"2010-11-25 01:27:00",366235,17.98,315.1,4.348,1.157,1.41,97.2752,-7.639,-6.39,20.38,0,109.1,13.79,-6.91,277.1
"2010-11-25 01:27:30",366236,18.19,312.1,3.89,1.117,1.425,97.2752,-7.639,-6.398,20.36,0,109.1,13.79,-6.91,274.1
"2010-11-25 01:28:00",366237,17.17,316.5,2.332,0.876,1.494,97.2752,-7.639,-6.407,20.44,0,109.1,13.79,-6.91,278.5
"2010-11-25 01:28:30",366238,15.43,316.2,4.258,0.704,1.495,97.2752,-7.639,-6.392,20.36,0,109.1,13.79,-6.91,278.2
"2010-11-25 01:29:00",366239,16.05,320.8,5.049,1.047,1.459,97.2752,-7.639,-6.392,20.64,0,109.1,13.79,-6.91,282.8
"2010-11-25 01:29:30",366240,17.57,321.3,4.224,1.278,1.389,97.2752,-7.639,-6.423,20.63,0,109.1,13.79,-6.91,283.3
"2010-11-25 01:30:00",366241,19.01,317.5,4.616,0.679,1.641,97.27492,-7.639,-6.436,20.43,0,109.1,13.79,-6.91,279.5
"2010-11-25 01:30:30",366242,18.48,315.1,5.011,0.679,1.566,97.27492,-7.639,-6.435,20.26,0,109.1,13.79,-6.91,277.1
"2010-11-25 01:31:00",366243,18.64,314.8,4.289,0.821,1.552,97.27322,-7.644,-6.424,20.17,0,109.1,13.79,-6.92,276.8
"2010-11-25 01:31:30",366244,19.1,312.1,3.999,0.439,1.587,97.26925,-7.654,-6.42,19.99,0,109.1,13.79,-6.93,274.1
"2010-11-25 01:32:00",366245,19.29,315.6,2.047,0.853,1.531,97.26385,-7.668,-6.452,19.74,0,109.1,13.79,-6.94,277.6
"2010-11-25 01:32:30",366246,19.2,315.2,4.042,0.279,1.606,97.26584,-7.662,-6.442,19.37,0,109.1,13.79,-6.94,277.2
"2010-11-25 01:33:00",366247,19.03,314.7,3.021,0.743,1.503,97.26839,-7.656,-6.44,19.36,0,109.1,13.79,-6.93,276.7
"2010-11-25 01:33:30",366248,18.42,315.5,4.103,0.892,1.711,97.26981,-7.652,-6.439,19.56,0,109.1,13.79,-6.93,277.5
"2010-11-25 01:34:00",366249,17.29,313.9,3.792,0.755,1.774,97.27351,-7.643,-6.436,19.86,0,109.1,13.79,-6.92,275.9
"2010-11-25 01:34:30",366250,17.31,312.7,3.738,0.472,1.611,97.2752,-7.639,-6.439,20.16,0,109.2,13.79,-6.91,274.7
"2010-11-25 01:35:00",366251,18.02,314.1,3.902,0.551,1.582,97.2752,-7.639,-6.431,20.24,0,109.1,13.79,-6.91,276.1
"2010-11-25 01:35:30",366252,18.67,314.4,3.85,0.571,1.595,97.2752,-7.639,-6.423,20.22,0,109.1,13.79,-6.91,276.4
"2010-11-25 01:36:00",366253,18.39,315,3.334,0.624,1.683,97.2752,-7.639,-6.436,20.08,0,109.1,13.79,-6.91,277.0
"2010-11-25 01:36:30",366254,17.65,313.6,3.395,0.552,1.555,97.2752,-7.639,-6.43,20.28,0,109.1,13.79,-6.91,275.6
"2010-11-25 01:37:00",366255,17.51,313,3.773,0.673,1.591,97.2752,-7.639,-6.416,20.67,0,109.1,13.78,-6.91,275.0
"2010-11-25 01:37:30",366256,18.82,314.4,3.981,0.73,1.567,97.2752,-7.639,-6.424,20.54,0,109.1,13.78,-6.91,276.4
"2010-11-25 01:38:00",366257,18.12,314.5,3.541,1.016,1.692,97.2752,-7.639,-6.423,20.22,0,109.1,13.78,-6.91,276.5
"2010-11-25 01:38:30",366258,18.58,313.7,3.646,1.109,1.398,97.2752,-7.639,-6.416,20.16,0,109.2,13.78,-6.91,275.7
"2010-11-25 01:39:00",366259,17.78,316.1,3.767,0.754,1.329,97.2752,-7.639,-6.41,20.24,0,109.1,13.78,-6.91,278.1
"2010-11-25 01:39:30",366260,18.3,313.5,4.486,0.632,1.452,97.27407,-7.642,-6.419,20.16,0,109.1,13.78,-6.92,275.5
"2010-11-25 01:40:00",366261,18.75,315.2,3.375,0.562,1.606,97.26214,-7.672,-6.432,19.84,0,109.1,13.78,-6.95,277.2
"2010-11-25 01:40:30",366262,18.98,313,3.814,0.681,1.609,97.25192,-7.698,-6.442,19.97,0,109.2,13.78,-6.97,275.0
"2010-11-25 01:41:00",366263,18.68,312.1,2.965,0.749,1.506,97.24965,-7.704,-6.434,20.1,0,109.1,13.78,-6.98,274.1
"2010-11-25 01:41:30",366264,17.71,313.9,4.12,0.721,1.367,97.24937,-7.704,-6.451,20.07,0,109.1,13.78,-6.98,275.9
"2010-11-25 01:42:00",366265,17.16,317.1,3.848,0.801,1.432,97.24398,-7.718,-6.467,20.09,0,109.1,13.79,-6.99,279.1
"2010-11-25 01:42:30",366266,17.09,314.3,3.422,0.555,1.273,97.24113,-7.725,-6.459,20.13,0,109.2,13.79,-7.00,276.3
"2010-11-25 01:43:00",366267,16.14,315.3,3.591,0.715,1.293,97.24113,-7.725,-6.454,20.11,0,109.1,13.79,-7.00,277.3
"2010-11-25 01:43:30",366268,16.18,316.6,3.244,0.782,1.143,97.23801,-7.733,-6.486,20.23,0,109.1,13.79,-7.01,278.6
"2010-11-25 01:44:00",366269,17.23,314.7,2.944,1.093,1.352,97.21758,-7.785,-6.494,20.37,0,109.1,13.79,-7.06,276.7
"2010-11-25 01:44:30",366270,18.29,313.3,3.534,0.622,1.256,97.21304,-7.797,-6.52,20.11,0,109.1,13.79,-7.07,275.3
"2010-11-25 01:45:00",366271,17.62,316,4.078,0.364,1.325,97.20793,-7.81,-6.529,20.43,0,109.1,13.79,-7.09,278.0
"2010-11-25 01:45:30",366272,17.82,313.7,3.635,0.726,1.432,97.20708,-7.812,-6.533,20.26,0,109.1,13.79,-7.09,275.7
"2010-11-25 01:46:00",366273,17.85,313.6,3.839,0.589,1.751,97.20708,-7.812,-6.552,20.13,0,109.1,13.79,-7.09,275.6
"2010-11-25 01:46:30",366274,18.19,314.8,3.951,0.675,1.448,97.20708,-7.812,-6.558,20.13,0,109.1,13.79,-7.09,276.8
"2010-11-25 01:47:00",366275,18.1,315.4,4.344,0.755,1.401,97.20708,-7.812,-6.551,20.16,0,109.1,13.79,-7.09,277.4
"2010-11-25 01:47:30",366276,18.03,313.1,4.446,0.649,1.456,97.20708,-7.812,-6.567,20.34,0,109.1,13.79,-7.09,275.1
"2010-11-25 01:48:00",366277,17.34,313.7,3.559,0.754,1.42,97.20622,-7.814,-6.571,20.38,0,109.1,13.79,-7.09,275.7
"2010-11-25 01:48:30",366278,18.2,312.7,2.601,0.866,1.263,97.20424,-7.819,-6.583,20.38,0,109.1,13.79,-7.09,274.7
"2010-11-25 01:49:00",366279,18.32,311.8,3.41,0.717,1.38,97.20424,-7.819,-6.568,20.37,0,109.1,13.79,-7.09,273.8
"2010-11-25 01:49:30",366280,18.54,316.1,3.996,0.621,1.463,97.20481,-7.818,-6.591,20.01,0,109.1,13.79,-7.09,278.1
"2010-11-25 01:50:00",366281,16.7,317,3.57,0.753,1.439,97.20339,-7.821,-6.586,20.14,0,109.1,13.79,-7.10,279.0
"2010-11-25 01:50:30",366282,17.17,314.5,3.403,0.968,1.281,97.20027,-7.829,-6.588,20.15,0,109.1,13.79,-7.10,276.5
"2010-11-25 01:51:00",366283,16.81,312.5,3.085,0.89,1.254,97.1875,-7.862,-6.599,20.11,0,109.1,13.79,-7.14,274.5
"2010-11-25 01:51:30",366284,17.2,314.4,4.217,0.977,1.169,97.18211,-7.875,-6.611,20.12,0,109.1,13.79,-7.15,276.4
"2010-11-25 01:52:00",366285,17.27,316.5,2.636,0.822,1.33,97.17785,-7.886,-6.613,20.2,0,109.1,13.79,-7.16,278.5
"2010-11-25 01:52:30",366286,16.9,314.7,2.094,0.722,1.052,97.17587,-7.891,-6.627,19.9,0,109.1,13.79,-7.17,276.7
"2010-11-25 01:53:00",366287,16.79,314.5,3.241,0.844,1.166,97.175,-7.894,-6.63,19.89,0,109.1,13.79,-7.17,276.5
"2010-11-25 01:53:30",366288,17.23,313.2,2.667,0.747,1.182,97.17359,-7.897,-6.63,19.96,0,109.1,13.79,-7.17,275.2
"2010-11-25 01:54:00",366289,17.07,314.4,3.343,0.723,1.311,97.1733,-7.898,-6.629,20.15,0,109.1,13.79,-7.17,276.4
"2010-11-25 01:54:30",366290,16.75,313.5,3.426,0.709,1.239,97.17302,-7.899,-6.639,20.16,0,109.1,13.79,-7.17,275.5
"2010-11-25 01:55:00",366291,17.44,312.9,3.29,0.872,1.079,97.17302,-7.899,-6.634,20.1,0,109.1,13.79,-7.17,274.9
"2010-11-25 01:55:30",366292,18.5,313.6,3.15,0.64,1.085,97.1733,-7.898,-6.653,20.12,0,109.1,13.79,-7.17,275.6
"2010-11-25 01:56:00",366293,17.81,314.8,2.454,0.969,1.154,97.17302,-7.899,-6.667,20.18,0,109.1,13.79,-7.17,276.8
"2010-11-25 01:56:30",366294,17.97,314.1,2.405,0.696,1.056,97.17301,-7.899,-6.66,20.33,0,109.1,13.79,-7.17,276.1
"2010-11-25 01:57:00",366295,18.02,314.7,2.987,0.798,1.121,97.17046,-7.905,-6.673,20.2,0,109.1,13.79,-7.18,276.7
"2010-11-25 01:57:30",366296,18,314.4,2.847,0.836,1.123,97.16337,-7.923,-6.68,20.14,0,109.1,13.79,-7.20,276.4
"2010-11-25 01:58:00",366297,18.66,313.8,1.78,0.834,1.321,97.15993,-7.932,-6.694,20.25,0,109.1,13.79,-7.21,275.8
"2010-11-25 01:58:30",366298,18.26,314,2.075,0.806,1.157,97.16309,-7.924,-6.687,20.08,0,109.1,13.79,-7.20,276.0
"2010-11-25 01:59:00",366299,17.97,314,2.565,0.851,1.15,97.16393,-7.922,-6.685,20.03,0,109.1,13.79,-7.20,276.0
"2010-11-25 01:59:30",366300,18.08,314.7,1.958,0.961,1.047,97.15827,-7.936,-6.686,19.91,0,109.1,13.79,-7.21,276.7
"2010-11-25 02:00:00",366301,18.28,315.7,3.36,0.893,1.299,97.15481,-7.945,-6.709,20,0,109.1,13.79,-7.22,277.7
"2010-11-25 02:00:30",366302,18.55,315.1,3.452,0.678,1.282,97.15311,-7.949,-6.706,20.41,0,109.1,13.8,-7.23,277.1
"2010-11-25 02:01:00",366303,17.05,316.3,2.045,0.886,1.017,97.15394,-7.947,-6.693,20.48,0,109.1,13.8,-7.22,278.3
"2010-11-25 02:01:30",366304,17.14,318.9,2.915,0.82,1.208,97.14799,-7.962,-6.717,20.3,0,109.1,13.8,-7.24,280.9
"2010-11-25 02:02:00",366305,18.22,314.9,2.723,0.704,1.227,97.14655,-7.966,-6.701,20.31,0,109.1,13.8,-7.24,276.9
"2010-11-25 02:02:30",366306,18.43,315,3.094,0.605,1.165,97.14201,-7.977,-6.697,20.36,0,109.1,13.8,-7.25,277.0
"2010-11-25 02:03:00",366307,17.66,315.2,3.422,0.815,1.124,97.14199,-7.978,-6.697,20.51,0,109.1,13.8,-7.25,277.2
"2010-11-25 02:03:30",366308,18,315.6,3.37,0.697,1.124,97.14392,-7.973,-6.717,20.7,0,109.1,13.8,-7.25,277.6
"2010-11-25 02:04:00",366309,17.6,319.4,2.108,0.94,1.246,97.14255,-7.976,-6.722,20.71,0,109.1,13.8,-7.25,281.4
"2010-11-25 02:04:30",366310,16.93,316.3,1.838,0.817,1.066,97.14199,-7.978,-6.726,20.68,0,109.1,13.8,-7.25,278.3
"2010-11-25 02:05:00",366311,17.23,315.6,3.4,0.803,1.145,97.14475,-7.971,-6.718,20.84,0,109.1,13.8,-7.25,277.6
"2010-11-25 02:05:30",366312,17.24,317.3,4.03,0.825,1.104,97.14613,-7.967,-6.728,20.89,0,109.1,13.8,-7.24,279.3
"2010-11-25 02:06:00",366313,16.43,317.3,2.517,1.241,1.089,97.14586,-7.968,-6.757,20.93,0,109.1,13.8,-7.24,279.3
"2010-11-25 02:06:30",366314,16.13,317.1,3.726,0.661,0.973,97.13934,-7.984,-6.751,20.88,0,109.1,13.8,-7.26,279.1
"2010-11-25 02:07:00",366315,16.21,316.2,3.348,0.803,0.908,97.13042,-8.01,-6.753,20.9,0,109.1,13.8,-7.28,278.2
"2010-11-25 02:07:30",366316,16.07,315.6,3.517,0.923,0.882,97.118,-8.04,-6.776,20.95,0,109.1,13.8,-7.31,277.6
"2010-11-25 02:08:00",366317,16.06,313.2,3.033,0.789,1.03,97.11317,-8.05,-6.797,21.09,0,109.1,13.8,-7.33,275.2
"2010-11-25 02:08:30",366318,15.83,314.6,3.149,0.707,0.808,97.11288,-8.05,-6.809,21.12,0,109.1,13.8,-7.33,276.6
"2010-11-25 02:09:00",366319,14.34,316.9,3.059,0.808,0.678,97.09865,-8.09,-6.812,21.36,0,109.1,13.8,-7.36,278.9
"2010-11-25 02:09:30",366320,16.22,315.5,2.413,1.125,0.663,97.08785,-8.12,-6.854,21.43,0,109.1,13.8,-7.39,277.5
"2010-11-25 02:10:00",366321,15.73,313.6,2.763,0.783,0.768,97.08104,-8.13,-6.869,21.5,0,109.1,13.8,-7.41,275.6
"2010-11-25 02:10:30",366322,17.9,313.3,2.83,1.142,0.829,97.08297,-8.13,-6.895,21.61,0,109,13.79,-7.40,275.3
"2010-11-25 02:11:00",366323,18.05,314.1,2.81,0.812,0.881,97.08765,-8.12,-6.9,21.52,0,109.1,13.79,-7.39,276.1
"2010-11-25 02:11:30",366324,17.7,314.4,1.848,0.85,0.842,97.0871,-8.12,-6.902,21.38,0,109.1,13.79,-7.39,276.4
"2010-11-25 02:12:00",366325,17.73,314.5,2.597,0.819,1.006,97.08372,-8.13,-6.903,21.19,0,109.1,13.79,-7.40,276.5
"2010-11-25 02:12:30",366326,16.94,315.3,2.591,0.74,0.931,97.08168,-8.13,-6.91,21.12,0,109,13.79,-7.41,277.3
"2010-11-25 02:13:00",366327,15.84,314.9,2.668,0.855,0.801,97.07314,-8.15,-6.915,21.23,0,109.1,13.79,-7.43,276.9
"2010-11-25 02:13:30",366328,15,314.5,3.071,1.026,0.688,97.06456,-8.17,-6.936,21.61,0,109.1,13.79,-7.45,276.5
"2010-11-25 02:14:00",366329,16.7,316,4.269,0.816,0.874,97.05775,-8.19,-6.951,21.81,0,109.1,13.79,-7.47,278.0
"2010-11-25 02:14:30",366330,16.69,317.2,2.592,0.835,0.627,97.05882,-8.19,-6.962,21.61,0,109.1,13.79,-7.47,279.2
"2010-11-25 02:15:00",366331,16.9,316.2,2.734,1.004,0.63,97.05515,-8.2,-6.967,21.58,0,109.1,13.79,-7.48,278.2
"2010-11-25 02:15:30",366332,17.81,320.3,3.037,0.856,0.779,97.04664,-8.22,-6.998,21.54,0,109.1,13.8,-7.50,282.3
"2010-11-25 02:16:00",366333,18.1,317.8,2.846,1.022,0.86,97.03862,-8.24,-7.001,21.53,0,109.1,13.8,-7.52,279.8
"2010-11-25 02:16:30",366334,17.93,316.9,2.465,1.116,0.861,97.03522,-8.25,-7.015,21.63,0,109.1,13.8,-7.53,278.9
"2010-11-25 02:17:00",366335,16.93,316.7,1.866,0.959,0.793,97.03323,-8.25,-7.011,21.77,0,109.1,13.8,-7.53,278.7
"2010-11-25 02:17:30",366336,17.21,314.3,3.138,0.972,0.772,97.02727,-8.27,-7.007,21.86,0,109.1,13.8,-7.55,276.3
"2010-11-25 02:18:00",366337,17.36,314.6,1.914,0.832,0.855,97.02613,-8.27,-7.026,21.73,0,109.1,13.8,-7.55,276.6